Time,TemperatureF,DewpointF,PressureIn,WindDirection,WindDirectionDegrees,WindSpeedMPH,WindSpeedGustMPH,Humidity,HourlyPrecipIn,Conditions,Clouds,dailyrainin,SoftwareType,DateUTC
2013-04-14 00:00:00,74.0,71.2,30.01,NE,36,1.0,7.0,91,0.00,,BKN020,0.00,VWS V14.01,2013-04-14 04:00:00,
2013-04-14 00:05:00,74.0,71.2,30.00,NNE,29,1.0,6.0,91,0.00,,SCT022,0.00,VWS V14.01,2013-04-14 04:05:00,
2013-04-14 00:10:00,74.0,71.5,30.00,NE,43,3.0,7.0,92,0.00,,SCT022,0.00,VWS V14.01,2013-04-14 04:10:00,
2013-04-14 00:15:00,74.0,71.2,29.99,NE,43,0.0,7.0,91,0.00,,SCT022,0.00,VWS V14.01,2013-04-14 04:15:00,
2013-04-14 00:20:00,74.0,70.9,29.99,NE,42,5.0,7.0,90,0.00,,SCT022,0.00,VWS V14.01,2013-04-14 04:20:00,
2013-04-14 00:25:00,74.1,71.0,29.99,NE,41,0.0,7.0,90,0.00,,SCT022,0.00,VWS V14.01,2013-04-14 04:25:00,
2013-04-14 00:30:00,74.2,71.1,29.99,NE,54,2.0,7.0,90,0.00,,SCT022,0.00,VWS V14.01,2013-04-14 04:30:00,
2013-04-14 00:35:00,74.3,71.2,29.99,ENE,60,4.0,7.0,90,0.00,,SCT022,0.00,VWS V14.01,2013-04-14 04:35:00,
2013-04-14 00:40:00,74.3,71.2,29.99,NE,46,2.0,7.0,90,0.00,,SCT022,0.00,VWS V14.01,2013-04-14 04:40:00,
2013-04-14 00:45:00,74.4,71.3,29.99,ENE,65,3.0,7.0,90,0.00,,SCT022,0.00,VWS V14.01,2013-04-14 04:45:00,
2013-04-14 00:50:00,74.5,71.4,29.99,NE,56,2.0,7.0,90,0.00,,SCT022,0.00,VWS V14.01,2013-04-14 04:50:00,
2013-04-14 00:55:00,74.6,71.2,29.98,East,82,0.0,7.0,89,0.00,,SCT022,0.00,VWS V14.01,2013-04-14 04:55:00,
2013-04-14 01:00:00,74.6,71.2,29.99,ENE,58,2.0,4.0,89,0.00,,CLR,0.00,VWS V14.01,2013-04-14 05:00:00,
2013-04-14 01:05:00,74.6,71.2,29.99,East,81,0.0,5.0,89,0.00,,CLR,0.00,VWS V14.01,2013-04-14 05:05:00,
2013-04-14 01:10:00,74.6,71.2,29.99,ENE,69,1.0,5.0,89,0.00,,CLR,0.00,VWS V14.01,2013-04-14 05:10:00,
2013-04-14 01:15:00,74.5,71.1,29.99,ENE,72,2.0,6.0,89,0.00,,CLR,0.00,VWS V14.01,2013-04-14 05:15:00,
2013-04-14 01:20:00,74.4,70.9,30.00,NE,46,4.0,6.0,89,0.00,,CLR,0.00,VWS V14.01,2013-04-14 05:20:00,
2013-04-14 01:25:00,74.5,71.1,29.99,NE,38,0.0,6.0,89,0.00,,CLR,0.00,VWS V14.01,2013-04-14 05:25:00,
2013-04-14 01:30:00,74.4,71.3,29.99,NE,39,0.0,6.0,90,0.00,,CLR,0.00,VWS V14.01,2013-04-14 05:30:00,
2013-04-14 01:35:00,74.4,71.3,29.99,NE,49,0.0,6.0,90,0.00,,CLR,0.00,VWS V14.01,2013-04-14 05:35:00,
2013-04-14 01:40:00,74.5,71.4,29.99,NNE,27,0.0,6.0,90,0.00,,CLR,0.00,VWS V14.01,2013-04-14 05:40:00,
2013-04-14 01:45:00,74.4,71.6,29.99,NE,35,0.0,6.0,91,0.00,,CLR,0.00,VWS V14.01,2013-04-14 05:45:00,
2013-04-14 01:50:00,74.5,71.7,29.98,NNE,12,0.0,6.0,91,0.00,,CLR,0.00,VWS V14.01,2013-04-14 05:50:00,
2013-04-14 01:55:00,74.5,71.7,29.98,NNE,12,0.0,6.0,91,0.00,,BKN025,0.00,VWS V14.01,2013-04-14 05:55:00,
2013-04-14 02:01:00,74.5,71.7,29.99,NNE,12,1.0,1.0,91,0.00,,SCT025,0.00,VWS V14.01,2013-04-14 06:01:00,
2013-04-14 02:06:00,74.4,71.6,29.98,NNE,26,1.0,4.0,91,0.00,,SCT025,0.00,VWS V14.01,2013-04-14 06:06:00,
2013-04-14 02:11:00,74.4,71.6,29.99,NNE,22,0.0,4.0,91,0.00,,SCT025,0.00,VWS V14.01,2013-04-14 06:11:00,
2013-04-14 02:16:00,74.3,71.5,29.99,NNE,22,0.0,4.0,91,0.00,,SCT025,0.00,VWS V14.01,2013-04-14 06:16:00,
2013-04-14 02:21:00,74.4,71.6,29.98,NNE,22,0.0,4.0,91,0.00,,SCT025,0.00,VWS V14.01,2013-04-14 06:21:00,
2013-04-14 02:26:00,74.4,71.9,29.98,NNE,22,0.0,4.0,92,0.00,,SCT025,0.00,VWS V14.01,2013-04-14 06:26:00,
2013-04-14 02:31:00,74.4,71.6,29.98,NNE,22,0.0,4.0,91,0.00,,SCT025,0.00,VWS V14.01,2013-04-14 06:31:00,
2013-04-14 02:36:00,74.4,71.6,29.97,NNE,22,3.0,4.0,91,0.00,,SCT025,0.00,VWS V14.01,2013-04-14 06:36:00,
2013-04-14 02:41:00,74.4,71.9,29.97,NNE,31,0.0,4.0,92,0.00,,SCT025,0.00,VWS V14.01,2013-04-14 06:41:00,
2013-04-14 02:46:00,74.3,71.8,29.97,NE,34,0.0,4.0,92,0.00,,SCT025,0.00,VWS V14.01,2013-04-14 06:46:00,
2013-04-14 02:51:00,74.3,71.5,29.96,NE,35,0.0,4.0,91,0.00,,SCT025,0.00,VWS V14.01,2013-04-14 06:51:00,
2013-04-14 02:56:00,74.2,71.7,29.97,NE,35,3.0,4.0,92,0.00,,SCT025,0.00,VWS V14.01,2013-04-14 06:56:00,
2013-04-14 03:01:00,74.2,72.1,29.97,NE,36,0.0,2.0,93,0.00,,FEW022,0.00,VWS V14.01,2013-04-14 07:01:00,
2013-04-14 03:06:00,74.2,71.7,29.97,NE,36,0.0,3.0,92,0.00,,FEW022,0.00,VWS V14.01,2013-04-14 07:06:00,
2013-04-14 03:11:00,74.2,71.7,29.98,NE,36,0.0,3.0,92,0.00,,FEW022,0.00,VWS V14.01,2013-04-14 07:11:00,
2013-04-14 03:16:00,74.1,71.6,29.97,NE,35,0.0,3.0,92,0.00,,FEW022,0.00,VWS V14.01,2013-04-14 07:16:00,
2013-04-14 03:21:00,74.1,71.6,29.97,NE,36,0.0,3.0,92,0.00,,FEW022,0.00,VWS V14.01,2013-04-14 07:21:00,
2013-04-14 03:27:00,74.0,71.8,29.96,NE,35,0.0,3.0,93,0.00,,FEW022,0.00,VWS V14.01,2013-04-14 07:27:00,
2013-04-14 03:32:00,73.9,71.8,29.96,NE,35,0.0,3.0,93,0.00,,FEW022,0.00,VWS V14.01,2013-04-14 07:32:00,
2013-04-14 03:37:00,73.9,72.1,29.96,NE,34,0.0,3.0,94,0.00,,FEW022,0.00,VWS V14.01,2013-04-14 07:37:00,
2013-04-14 03:42:00,73.9,71.8,29.96,NE,35,0.0,3.0,93,0.00,,FEW022,0.00,VWS V14.01,2013-04-14 07:42:00,
2013-04-14 03:47:00,73.8,72.0,29.96,NE,34,0.0,3.0,94,0.00,,FEW022,0.00,VWS V14.01,2013-04-14 07:47:00,
2013-04-14 03:52:00,73.8,72.0,29.95,NE,35,0.0,3.0,94,0.00,,FEW022,0.00,VWS V14.01,2013-04-14 07:52:00,
2013-04-14 03:57:00,73.8,72.0,29.96,NE,34,0.0,3.0,94,0.00,,FEW022,0.00,VWS V14.01,2013-04-14 07:57:00,
2013-04-14 04:02:00,73.8,71.7,29.96,NE,35,0.0,1.0,93,0.00,,CLR,0.00,VWS V14.01,2013-04-14 08:02:00,
2013-04-14 04:07:00,73.8,72.0,29.95,NE,35,0.0,1.0,94,0.00,,CLR,0.00,VWS V14.01,2013-04-14 08:07:00,
2013-04-14 04:12:00,73.8,72.0,29.95,ENE,59,0.0,3.0,94,0.00,,CLR,0.00,VWS V14.01,2013-04-14 08:12:00,
2013-04-14 04:17:00,73.9,72.1,29.95,NE,54,3.0,5.0,94,0.00,,CLR,0.00,VWS V14.01,2013-04-14 08:17:00,
2013-04-14 04:22:00,73.9,72.1,29.94,ENE,68,2.0,6.0,94,0.00,,CLR,0.00,VWS V14.01,2013-04-14 08:22:00,
2013-04-14 04:27:00,74.0,71.8,29.94,NE,39,3.0,6.0,93,0.00,,CLR,0.00,VWS V14.01,2013-04-14 08:27:00,
2013-04-14 04:32:00,74.0,71.8,29.95,East,86,2.0,6.0,93,0.00,,CLR,0.00,VWS V14.01,2013-04-14 08:32:00,
2013-04-14 04:37:00,74.1,71.9,29.95,ENE,58,1.0,6.0,93,0.00,,CLR,0.00,VWS V14.01,2013-04-14 08:37:00,
2013-04-14 04:42:00,74.1,71.9,29.94,NNE,33,0.0,6.0,93,0.00,,CLR,0.00,VWS V14.01,2013-04-14 08:42:00,
2013-04-14 04:48:00,74.1,71.9,29.95,NE,40,3.0,6.0,93,0.00,,CLR,0.00,VWS V14.01,2013-04-14 08:48:00,
2013-04-14 04:53:00,74.2,72.1,29.94,NE,44,1.0,6.0,93,0.00,,CLR,0.00,VWS V14.01,2013-04-14 08:53:00,
2013-04-14 04:58:00,74.3,72.5,29.95,NE,43,0.0,6.0,94,0.00,,CLR,0.00,VWS V14.01,2013-04-14 08:58:00,
2013-04-14 05:03:00,74.3,72.5,29.95,ENE,58,2.0,5.0,94,0.00,,SCT021,0.00,VWS V14.01,2013-04-14 09:03:00,
2013-04-14 05:08:00,74.3,72.2,29.94,NE,50,2.0,6.0,93,0.00,,SCT021,0.00,VWS V14.01,2013-04-14 09:08:00,
2013-04-14 05:13:00,74.4,72.2,29.94,NE,49,3.0,6.0,93,0.00,,BKN020,0.00,VWS V14.01,2013-04-14 09:13:00,
2013-04-14 05:18:00,74.5,72.3,29.95,NE,49,0.0,6.0,93,0.00,,BKN020,0.00,VWS V14.01,2013-04-14 09:18:00,
2013-04-14 05:23:00,74.5,72.3,29.95,NE,53,2.0,6.0,93,0.00,,BKN020,0.00,VWS V14.01,2013-04-14 09:23:00,
2013-04-14 05:28:00,74.6,72.8,29.94,East,81,2.0,6.0,94,0.00,,BKN020,0.00,VWS V14.01,2013-04-14 09:28:00,
2013-04-14 05:33:00,74.7,72.9,29.95,NE,45,3.0,6.0,94,0.00,,BKN020,0.00,VWS V14.01,2013-04-14 09:33:00,
2013-04-14 05:38:00,74.7,73.2,29.94,NE,48,4.0,6.0,95,0.00,,BKN020,0.00,VWS V14.01,2013-04-14 09:38:00,
2013-04-14 05:43:00,74.7,73.2,29.94,ENE,76,4.0,6.0,95,0.00,,BKN020,0.00,VWS V14.01,2013-04-14 09:43:00,
2013-04-14 05:48:00,74.7,72.6,29.95,NE,55,2.0,6.0,93,0.00,,FEW022,0.00,VWS V14.01,2013-04-14 09:48:00,
2013-04-14 05:53:00,74.7,73.2,29.95,NE,47,2.0,6.0,95,0.00,,FEW022,0.00,VWS V14.01,2013-04-14 09:53:00,
2013-04-14 05:58:00,74.8,73.3,29.94,ENE,62,0.0,6.0,95,0.00,,FEW022,0.00,VWS V14.01,2013-04-14 09:58:00,
2013-04-14 06:03:00,74.8,72.6,29.95,East,87,3.0,5.0,93,0.00,,CLR,0.00,VWS V14.01,2013-04-14 10:03:00,
2013-04-14 06:08:00,74.8,72.6,29.95,East,90,4.0,5.0,93,0.00,,CLR,0.00,VWS V14.01,2013-04-14 10:08:00,
2013-04-14 06:13:00,74.8,72.6,29.95,NE,52,0.0,5.0,93,0.00,,CLR,0.00,VWS V14.01,2013-04-14 10:13:00,
2013-04-14 06:18:00,74.8,72.6,29.96,NE,51,0.0,5.0,93,0.00,,CLR,0.00,VWS V14.01,2013-04-14 10:18:00,
2013-04-14 06:23:00,74.8,72.6,29.96,NE,55,0.0,5.0,93,0.00,,CLR,0.00,VWS V14.01,2013-04-14 10:23:00,
2013-04-14 06:28:00,74.7,72.2,29.95,ENE,70,0.0,5.0,92,0.00,,CLR,0.00,VWS V14.01,2013-04-14 10:28:00,
2013-04-14 06:33:00,74.6,72.1,29.95,ENE,64,0.0,5.0,92,0.00,,CLR,0.00,VWS V14.01,2013-04-14 10:33:00,
2013-04-14 06:38:00,74.6,72.1,29.95,ENE,64,0.0,5.0,92,0.00,,,0.00,VWS V14.01,2013-04-14 10:38:00,
2013-04-14 06:43:00,74.5,72.3,29.96,ENE,64,0.0,5.0,93,0.00,,,0.00,VWS V14.01,2013-04-14 10:43:00,
2013-04-14 06:48:00,74.5,72.3,29.96,ENE,64,0.0,5.0,93,0.00,,,0.00,VWS V14.01,2013-04-14 10:48:00,
2013-04-14 06:53:00,74.5,72.0,29.96,ENE,64,0.0,5.0,92,0.00,,,0.00,VWS V14.01,2013-04-14 10:53:00,
2013-04-14 06:58:00,74.5,72.3,29.96,ENE,61,0.0,5.0,93,0.00,,,0.00,VWS V14.01,2013-04-14 10:58:00,
2013-04-14 07:03:00,74.5,72.3,29.97,ENE,61,0.0,0.0,93,0.00,,BKN028,0.00,VWS V14.01,2013-04-14 11:03:00,
2013-04-14 07:08:00,74.4,72.2,29.96,ENE,78,0.0,2.0,93,0.00,,BKN028,0.00,VWS V14.01,2013-04-14 11:08:00,
2013-04-14 07:13:00,74.4,72.2,29.96,ENE,78,0.0,2.0,93,0.00,,BKN028,0.00,VWS V14.01,2013-04-14 11:13:00,
2013-04-14 07:18:00,74.4,72.2,29.96,East,89,0.0,2.0,93,0.00,,BKN028,0.00,VWS V14.01,2013-04-14 11:18:00,
2013-04-14 07:23:00,74.4,72.2,29.95,East,92,0.0,2.0,93,0.00,,OVC033,0.00,VWS V14.01,2013-04-14 11:23:00,
2013-04-14 07:28:00,74.4,72.2,29.96,East,92,0.0,3.0,93,0.00,,OVC033,0.00,VWS V14.01,2013-04-14 11:28:00,
2013-04-14 07:33:00,74.4,72.2,29.95,East,93,0.0,3.0,93,0.00,,OVC033,0.00,VWS V14.01,2013-04-14 11:33:00,
2013-04-14 07:38:00,74.4,72.6,29.96,East,90,0.0,4.0,94,0.00,,OVC033,0.00,VWS V14.01,2013-04-14 11:38:00,
2013-04-14 07:43:00,74.5,72.7,29.96,East,90,0.0,4.0,94,0.00,,SCT024,0.00,VWS V14.01,2013-04-14 11:43:00,
2013-04-14 07:48:00,74.6,72.8,29.96,East,90,2.0,4.0,94,0.00,,SCT024,0.00,VWS V14.01,2013-04-14 11:48:00,
2013-04-14 07:53:00,74.7,72.9,29.96,East,90,0.0,4.0,94,0.00,,SCT024,0.00,VWS V14.01,2013-04-14 11:53:00,
2013-04-14 07:58:00,74.9,73.1,29.97,East,90,0.0,4.0,94,0.00,,SCT024,0.00,VWS V14.01,2013-04-14 11:58:00,
2013-04-14 08:03:00,74.9,73.1,29.96,East,90,0.0,1.0,94,0.00,,FEW012,0.00,VWS V14.01,2013-04-14 12:03:00,
2013-04-14 08:08:00,75.2,73.4,29.97,East,92,0.0,1.0,94,0.00,,FEW012,0.00,VWS V14.01,2013-04-14 12:08:00,
2013-04-14 08:13:00,75.2,73.7,29.97,East,90,0.0,3.0,95,0.00,,FEW012,0.00,VWS V14.01,2013-04-14 12:13:00,
2013-04-14 08:18:00,75.3,73.5,29.97,East,95,0.0,4.0,94,0.00,,FEW012,0.00,VWS V14.01,2013-04-14 12:18:00,
2013-04-14 08:24:00,75.5,73.7,29.97,SSE,167,0.0,5.0,94,0.00,,FEW012,0.00,VWS V14.01,2013-04-14 12:24:00,
2013-04-14 08:29:00,75.7,73.8,29.98,SE,143,4.0,5.0,94,0.00,,FEW012,0.00,VWS V14.01,2013-04-14 12:29:00,
2013-04-14 08:34:00,75.9,73.7,29.98,SSE,147,2.0,6.0,93,0.00,,FEW012,0.00,VWS V14.01,2013-04-14 12:34:00,
2013-04-14 08:39:00,76.1,73.9,29.98,SE,135,0.0,6.0,93,0.00,,FEW012,0.00,VWS V14.01,2013-04-14 12:39:00,
2013-04-14 08:44:00,76.2,74.0,29.98,SE,137,1.0,7.0,93,0.00,,BKN013,0.00,VWS V14.01,2013-04-14 12:44:00,
2013-04-14 08:49:00,76.4,73.9,29.98,SSE,165,2.0,9.0,92,0.00,,BKN013,0.00,VWS V14.01,2013-04-14 12:49:00,
2013-04-14 08:54:00,76.6,74.1,29.97,SSE,167,3.0,9.0,92,0.00,,BKN013,0.00,VWS V14.01,2013-04-14 12:54:00,
2013-04-14 08:59:00,76.9,74.1,29.98,South,174,8.0,9.0,91,0.00,,BKN013,0.00,VWS V14.01,2013-04-14 12:59:00,
2013-04-14 09:04:00,77.1,73.9,29.97,SSE,168,6.0,9.0,90,0.00,,BKN028,0.00,VWS V14.01,2013-04-14 13:04:00,
2013-04-14 09:09:00,77.2,74.0,29.97,SE,129,3.0,9.0,90,0.00,,BKN028,0.00,VWS V14.01,2013-04-14 13:09:00,
2013-04-14 09:14:00,77.4,73.9,29.98,SSE,166,4.0,10.0,89,0.00,,BKN028,0.00,VWS V14.01,2013-04-14 13:14:00,
2013-04-14 09:19:00,77.6,74.4,29.98,SW,216,3.0,10.0,90,0.00,,BKN028,0.00,VWS V14.01,2013-04-14 13:19:00,
2013-04-14 09:24:00,77.8,74.6,29.98,South,189,0.0,10.0,90,0.00,,BKN028,0.00,VWS V14.01,2013-04-14 13:24:00,
2013-04-14 09:29:00,77.9,74.4,29.98,SE,143,2.0,10.0,89,0.00,,BKN028,0.00,VWS V14.01,2013-04-14 13:29:00,
2013-04-14 09:34:00,78.1,74.3,29.98,SSE,148,8.0,12.0,88,0.00,,BKN034,0.00,VWS V14.01,2013-04-14 13:34:00,
2013-04-14 09:39:00,78.4,74.2,29.98,SSE,162,7.0,12.0,87,0.00,,BKN034,0.00,VWS V14.01,2013-04-14 13:39:00,
2013-04-14 09:44:00,78.9,74.7,29.98,SSE,163,6.0,13.0,87,0.00,,BKN034,0.00,VWS V14.01,2013-04-14 13:44:00,
2013-04-14 09:49:00,79.3,74.8,29.98,South,184,3.0,13.0,86,0.00,,BKN034,0.00,VWS V14.01,2013-04-14 13:49:00,
2013-04-14 09:54:00,79.5,74.2,29.98,SE,145,4.0,13.0,84,0.00,,BKN034,0.00,VWS V14.01,2013-04-14 13:54:00,
2013-04-14 09:59:00,79.7,74.4,29.98,SE,142,4.0,13.0,84,0.00,,BKN034,0.00,VWS V14.01,2013-04-14 13:59:00,
2013-04-14 10:04:00,79.9,74.6,29.98,South,169,4.0,10.0,84,0.00,,SCT038,0.00,VWS V14.01,2013-04-14 14:04:00,
2013-04-14 10:09:00,80.0,74.4,29.98,SSE,167,6.0,10.0,83,0.00,,SCT038,0.00,VWS V14.01,2013-04-14 14:09:00,
2013-04-14 10:14:00,80.1,74.1,29.99,SSE,166,6.0,10.0,82,0.00,,SCT038,0.00,VWS V14.01,2013-04-14 14:14:00,
2013-04-14 10:19:00,80.1,73.8,29.99,SE,144,4.0,10.0,81,0.00,,SCT038,0.00,VWS V14.01,2013-04-14 14:19:00,
2013-04-14 10:24:00,80.1,74.1,29.99,SE,129,5.0,10.0,82,0.00,,SCT038,0.00,VWS V14.01,2013-04-14 14:24:00,
2013-04-14 10:29:00,80.2,74.2,29.99,SSE,154,3.0,10.0,82,0.00,,SCT038,0.00,VWS V14.01,2013-04-14 14:29:00,
2013-04-14 10:34:00,80.2,74.2,29.99,SSW,196,2.0,10.0,82,0.00,,SCT038,0.00,VWS V14.01,2013-04-14 14:34:00,
2013-04-14 10:39:00,80.4,74.4,29.99,South,184,4.0,10.0,82,0.00,,SCT038,0.00,VWS V14.01,2013-04-14 14:39:00,
2013-04-14 10:44:00,80.5,74.5,29.99,SW,216,3.0,10.0,82,0.00,,SCT038,0.00,VWS V14.01,2013-04-14 14:44:00,
2013-04-14 10:49:00,80.7,74.7,29.99,SSE,161,1.0,10.0,82,0.00,,SCT038,0.00,VWS V14.01,2013-04-14 14:49:00,
2013-04-14 10:54:00,80.8,74.8,29.99,SSE,149,2.0,10.0,82,0.00,,SCT038,0.00,VWS V14.01,2013-04-14 14:54:00,
2013-04-14 10:59:00,80.9,74.2,29.99,SSW,205,4.0,10.0,80,0.00,,SCT038,0.00,VWS V14.01,2013-04-14 14:59:00,
2013-04-14 11:04:00,81.2,75.2,30.00,ESE,113,4.0,7.0,82,0.00,,BKN036,0.00,VWS V14.01,2013-04-14 15:04:00,
2013-04-14 11:10:00,81.8,75.0,29.99,ESE,106,7.0,10.0,80,0.00,,BKN036,0.00,VWS V14.01,2013-04-14 15:10:00,
2013-04-14 11:15:00,82.5,75.3,29.99,SSE,150,9.0,11.0,79,0.00,,BKN036,0.00,VWS V14.01,2013-04-14 15:15:00,
2013-04-14 11:20:00,83.1,76.3,29.99,SSE,152,5.0,12.0,80,0.00,,BKN036,0.00,VWS V14.01,2013-04-14 15:20:00,
2013-04-14 11:25:00,83.6,76.4,29.98,ESE,106,7.0,12.0,79,0.00,,BKN036,0.00,VWS V14.01,2013-04-14 15:25:00,
2013-04-14 11:30:00,84.0,76.4,29.98,SSE,147,7.0,12.0,78,0.00,,BKN036,0.00,VWS V14.01,2013-04-14 15:30:00,
2013-04-14 11:35:00,84.0,76.4,29.98,ESE,111,7.0,13.0,78,0.00,,BKN036,0.00,VWS V14.01,2013-04-14 15:35:00,
2013-04-14 11:40:00,84.0,76.4,29.98,ESE,121,8.0,15.0,78,0.00,,BKN036,0.00,VWS V14.01,2013-04-14 15:40:00,
2013-04-14 11:45:00,83.8,76.2,29.97,SE,129,3.0,15.0,78,0.00,,BKN036,0.00,VWS V14.01,2013-04-14 15:45:00,
2013-04-14 11:50:00,83.7,76.1,29.98,ESE,119,6.0,15.0,78,0.00,,BKN036,0.00,VWS V14.01,2013-04-14 15:50:00,
2013-04-14 11:55:00,83.6,76.4,29.98,ESE,121,9.0,15.0,79,0.00,,BKN036,0.00,VWS V14.01,2013-04-14 15:55:00,
2013-04-14 12:00:00,83.7,76.1,29.98,SE,140,6.0,8.0,78,0.00,,BKN036,0.00,VWS V14.01,2013-04-14 16:00:00,
2013-04-14 12:05:00,84.0,76.0,29.98,ESE,121,10.0,15.0,77,0.00,,OVC070,0.00,VWS V14.01,2013-04-14 16:05:00,
2013-04-14 12:10:00,84.4,76.4,29.98,East,86,6.0,18.0,77,0.00,,CLR,0.00,VWS V14.01,2013-04-14 16:10:00,
2013-04-14 12:15:00,84.7,75.9,29.98,SSE,149,8.0,18.0,75,0.00,,CLR,0.00,VWS V14.01,2013-04-14 16:15:00,
2013-04-14 12:20:00,84.8,76.0,29.98,ESE,110,12.0,18.0,75,0.00,,CLR,0.00,VWS V14.01,2013-04-14 16:20:00,
2013-04-14 12:25:00,84.7,75.5,29.98,East,89,10.0,18.0,74,0.00,,CLR,0.00,VWS V14.01,2013-04-14 16:25:00,
2013-04-14 12:30:00,84.2,75.8,29.97,ESE,120,8.0,18.0,76,0.00,,CLR,0.00,VWS V14.01,2013-04-14 16:30:00,
2013-04-14 12:35:00,84.3,75.9,29.98,SE,125,13.0,18.0,76,0.00,,CLR,0.00,VWS V14.01,2013-04-14 16:35:00,
2013-04-14 12:40:00,84.7,75.9,29.97,ESE,104,12.0,18.0,75,0.00,,CLR,0.00,VWS V14.01,2013-04-14 16:40:00,
2013-04-14 12:45:00,84.8,76.0,29.97,SE,127,4.0,18.0,75,0.00,,CLR,0.00,VWS V14.01,2013-04-14 16:45:00,
2013-04-14 12:50:00,85.0,75.8,29.97,SE,126,8.0,18.0,74,0.00,,CLR,0.00,VWS V14.01,2013-04-14 16:50:00,
2013-04-14 12:55:00,85.1,75.9,29.98,SSE,154,5.0,18.0,74,0.00,,CLR,0.00,VWS V14.01,2013-04-14 16:55:00,
2013-04-14 13:00:00,84.9,76.1,29.97,ESE,102,8.0,9.0,75,0.00,,CLR,0.00,VWS V14.01,2013-04-14 17:00:00,
2013-04-14 13:05:00,84.9,75.7,29.97,ESE,120,6.0,17.0,74,0.00,,CLR,0.00,VWS V14.01,2013-04-14 17:05:00,
2013-04-14 13:10:00,85.0,75.8,29.97,ESE,116,8.0,17.0,74,0.00,,CLR,0.00,VWS V14.01,2013-04-14 17:10:00,
2013-04-14 13:15:00,85.0,76.2,29.97,SE,124,5.0,17.0,75,0.00,,CLR,0.00,VWS V14.01,2013-04-14 17:15:00,
2013-04-14 13:20:00,85.1,76.3,29.97,SE,127,9.0,18.0,75,0.00,,CLR,0.00,VWS V14.01,2013-04-14 17:20:00,
2013-04-14 13:25:00,85.3,75.7,29.96,ESE,118,7.0,20.0,73,0.00,,CLR,0.00,VWS V14.01,2013-04-14 17:25:00,
2013-04-14 13:30:00,85.2,75.6,29.96,ESE,109,9.0,20.0,73,0.00,,CLR,0.00,VWS V14.01,2013-04-14 17:30:00,
2013-04-14 13:35:00,85.1,75.9,29.96,ESE,114,10.0,20.0,74,0.00,,CLR,0.00,VWS V14.01,2013-04-14 17:35:00,
2013-04-14 13:40:00,85.0,75.4,29.95,ESE,116,4.0,21.0,73,0.00,,CLR,0.00,VWS V14.01,2013-04-14 17:40:00,
2013-04-14 13:45:00,84.9,76.1,29.96,SE,132,8.0,21.0,75,0.00,,CLR,0.00,VWS V14.01,2013-04-14 17:45:00,
2013-04-14 13:50:00,84.7,75.5,29.96,East,97,9.0,21.0,74,0.00,,CLR,0.00,VWS V14.01,2013-04-14 17:50:00,
2013-04-14 13:55:00,84.4,75.2,29.96,SE,129,8.0,21.0,74,0.00,,CLR,0.00,VWS V14.01,2013-04-14 17:55:00,
2013-04-14 14:00:00,84.6,75.8,29.95,ESE,109,11.0,17.0,75,0.00,,CLR,0.00,VWS V14.01,2013-04-14 18:00:00,
2013-04-14 14:05:00,84.7,75.1,29.95,ESE,117,15.0,19.0,73,0.00,,FEW065,0.00,VWS V14.01,2013-04-14 18:05:00,
2013-04-14 14:10:00,84.8,75.6,29.94,SE,127,13.0,19.0,74,0.00,,FEW065,0.00,VWS V14.01,2013-04-14 18:10:00,
2013-04-14 14:15:00,85.0,75.0,29.94,SE,132,14.0,19.0,72,0.00,,FEW065,0.00,VWS V14.01,2013-04-14 18:15:00,
2013-04-14 14:20:00,84.7,75.1,29.94,ESE,111,9.0,22.0,73,0.00,,FEW065,0.00,VWS V14.01,2013-04-14 18:20:00,
2013-04-14 14:25:00,84.2,75.0,29.93,ESE,114,13.0,22.0,74,0.00,,FEW065,0.00,VWS V14.01,2013-04-14 18:25:00,
2013-04-14 14:30:00,83.8,75.0,29.94,SE,125,7.0,22.0,75,0.00,,FEW065,0.00,VWS V14.01,2013-04-14 18:30:00,
2013-04-14 14:35:00,83.5,75.1,29.94,ESE,105,7.0,22.0,76,0.00,,FEW065,0.00,VWS V14.01,2013-04-14 18:35:00,
2013-04-14 14:40:00,83.1,75.2,29.93,ESE,115,8.0,22.0,77,0.00,,FEW065,0.00,VWS V14.01,2013-04-14 18:40:00,
2013-04-14 14:45:00,82.8,74.9,29.94,SSE,157,5.0,22.0,77,0.00,,FEW065,0.00,VWS V14.01,2013-04-14 18:45:00,
2013-04-14 14:50:00,82.3,74.8,29.93,ESE,108,6.0,22.0,78,0.00,,FEW065,0.00,VWS V14.01,2013-04-14 18:50:00,
2013-04-14 14:55:00,82.0,75.6,29.93,ESE,122,7.0,22.0,81,0.00,,FEW065,0.00,VWS V14.01,2013-04-14 18:55:00,
2013-04-14 15:00:00,81.6,75.9,29.93,SE,145,5.0,12.0,83,0.01,,SCT110,0.01,VWS V14.01,2013-04-14 19:00:00,
2013-04-14 15:05:00,81.0,75.7,29.93,ESE,123,6.0,14.0,84,0.04,,SCT110,0.04,VWS V14.01,2013-04-14 19:05:00,
2013-04-14 15:10:00,80.2,74.9,29.92,ESE,119,6.0,14.0,84,0.07,,SCT110,0.07,VWS V14.01,2013-04-14 19:10:00,
2013-04-14 15:15:00,79.5,74.6,29.92,SE,130,4.0,14.0,85,0.08,,SCT110,0.08,VWS V14.01,2013-04-14 19:15:00,
2013-04-14 15:20:00,79.0,74.8,29.92,ESE,113,3.0,14.0,87,0.10,,SCT110,0.10,VWS V14.01,2013-04-14 19:20:00,
2013-04-14 15:25:00,78.6,74.8,29.93,ESE,118,5.0,14.0,88,0.13,,SCT110,0.13,VWS V14.01,2013-04-14 19:25:00,
2013-04-14 15:30:00,78.1,74.6,29.93,East,98,4.0,14.0,89,0.16,,SCT110,0.16,VWS V14.01,2013-04-14 19:30:00,
2013-04-14 15:35:00,77.9,75.4,29.93,ENE,78,2.0,14.0,92,0.19,,SCT110,0.19,VWS V14.01,2013-04-14 19:35:00,
2013-04-14 15:41:00,77.7,74.5,29.94,SW,215,2.0,14.0,90,0.23,,SCT110,0.23,VWS V14.01,2013-04-14 19:41:00,
2013-04-14 15:45:00,77.6,74.8,29.94,North,9,4.0,14.0,91,0.26,,SCT110,0.26,VWS V14.01,2013-04-14 19:45:00,
2013-04-14 15:51:00,77.3,74.5,29.94,NNE,31,4.0,14.0,91,0.29,,RA,0.29,VWS V14.01,2013-04-14 19:51:00,
2013-04-14 15:56:00,76.9,74.1,29.92,East,79,0.0,14.0,91,0.29,,RA,0.29,VWS V14.01,2013-04-14 19:56:00,
2013-04-14 16:01:00,76.7,73.9,29.93,East,83,0.0,0.0,91,0.28,,RA,0.29,VWS V14.01,2013-04-14 20:01:00,
2013-04-14 16:06:00,76.6,73.8,29.93,SE,125,5.0,11.0,91,0.30,,RA,0.31,VWS V14.01,2013-04-14 20:06:00,
2013-04-14 16:11:00,76.5,74.0,29.93,ESE,105,6.0,12.0,92,0.30,,RA,0.31,VWS V14.01,2013-04-14 20:11:00,
2013-04-14 16:16:00,76.5,73.7,29.92,ESE,104,6.0,16.0,91,0.30,,RA,0.31,VWS V14.01,2013-04-14 20:16:00,
2013-04-14 16:21:00,76.3,73.5,29.92,SE,124,7.0,16.0,91,0.30,,RA,0.31,VWS V14.01,2013-04-14 20:21:00,
2013-04-14 16:26:00,76.4,73.9,29.91,ESE,113,13.0,16.0,92,0.30,,RA,0.31,VWS V14.01,2013-04-14 20:26:00,
2013-04-14 16:31:00,76.6,74.1,29.91,ESE,122,13.0,16.0,92,0.30,,RA,0.31,VWS V14.01,2013-04-14 20:31:00,
2013-04-14 16:36:00,76.8,74.9,29.92,ESE,111,9.0,16.0,94,0.30,,RA,0.31,VWS V14.01,2013-04-14 20:36:00,
2013-04-14 16:41:00,76.9,74.4,29.91,SE,140,4.0,16.0,92,0.30,,RA,0.31,VWS V14.01,2013-04-14 20:41:00,
2013-04-14 16:47:00,77.1,74.3,29.91,East,96,7.0,16.0,91,0.30,,RA,0.31,VWS V14.01,2013-04-14 20:47:00,
2013-04-14 16:52:00,77.0,74.2,29.91,SE,137,5.0,16.0,91,0.30,,RA,0.31,VWS V14.01,2013-04-14 20:52:00,
2013-04-14 16:57:00,77.0,73.5,29.91,SE,135,5.0,18.0,89,0.30,,RA,0.31,VWS V14.01,2013-04-14 20:57:00,
2013-04-14 17:02:00,77.2,73.4,29.91,ESE,105,7.0,14.0,88,0.02,,-RA,0.31,VWS V14.01,2013-04-14 21:02:00,
2013-04-14 17:07:00,77.4,72.9,29.90,ESE,107,7.0,16.0,86,0.02,,-RA,0.31,VWS V14.01,2013-04-14 21:07:00,
2013-04-14 17:12:00,77.6,73.4,29.90,ESE,106,4.0,16.0,87,0.02,,OVC100,0.31,VWS V14.01,2013-04-14 21:12:00,
2013-04-14 17:17:00,78.0,73.8,29.90,ESE,115,20.0,22.0,87,0.02,,OVC100,0.31,VWS V14.01,2013-04-14 21:17:00,
2013-04-14 17:22:00,78.3,74.1,29.91,ESE,109,16.0,22.0,87,0.02,,OVC100,0.31,VWS V14.01,2013-04-14 21:22:00,
2013-04-14 17:27:00,78.6,74.4,29.90,SE,144,9.0,22.0,87,0.02,,OVC100,0.31,VWS V14.01,2013-04-14 21:27:00,
2013-04-14 17:32:00,78.8,75.3,29.90,SE,131,9.0,22.0,89,0.02,,OVC100,0.31,VWS V14.01,2013-04-14 21:32:00,
2013-04-14 17:37:00,79.0,74.8,29.90,ESE,106,5.0,22.0,87,0.02,,OVC100,0.31,VWS V14.01,2013-04-14 21:37:00,
2013-04-14 17:42:00,79.1,74.9,29.90,ESE,109,11.0,22.0,87,0.02,,OVC100,0.31,VWS V14.01,2013-04-14 21:42:00,
2013-04-14 17:47:00,79.1,74.9,29.90,ESE,115,14.0,22.0,87,0.02,,OVC100,0.31,VWS V14.01,2013-04-14 21:47:00,
2013-04-14 17:52:00,79.2,75.0,29.90,ESE,116,4.0,22.0,87,0.02,,OVC100,0.31,VWS V14.01,2013-04-14 21:52:00,
2013-04-14 17:57:00,79.2,74.7,29.91,SE,137,8.0,22.0,86,0.02,,OVC100,0.31,VWS V14.01,2013-04-14 21:57:00,
2013-04-14 18:02:00,79.2,74.3,29.90,ESE,116,19.0,19.0,85,0.00,,CLR,0.31,VWS V14.01,2013-04-14 22:02:00,
2013-04-14 18:07:00,79.2,74.3,29.90,SE,140,7.0,20.0,85,0.00,,CLR,0.31,VWS V14.01,2013-04-14 22:07:00,
2013-04-14 18:12:00,79.2,73.9,29.90,SE,146,7.0,20.0,84,0.00,,CLR,0.31,VWS V14.01,2013-04-14 22:12:00,
2013-04-14 18:17:00,79.3,74.4,29.90,SE,142,8.0,22.0,85,0.00,,CLR,0.31,VWS V14.01,2013-04-14 22:17:00,
2013-04-14 18:22:00,79.3,74.1,29.89,SE,144,9.0,22.0,84,0.00,,CLR,0.31,VWS V14.01,2013-04-14 22:22:00,
2013-04-14 18:27:00,79.2,73.9,29.89,SE,142,19.0,22.0,84,0.00,,CLR,0.31,VWS V14.01,2013-04-14 22:27:00,
2013-04-14 18:32:00,79.2,73.9,29.89,SE,136,20.0,22.0,84,0.00,,CLR,0.31,VWS V14.01,2013-04-14 22:32:00,
2013-04-14 18:37:00,79.2,73.9,29.88,SE,125,5.0,22.0,84,0.00,,CLR,0.31,VWS V14.01,2013-04-14 22:37:00,
2013-04-14 18:43:00,79.1,73.8,29.89,SE,129,7.0,22.0,84,0.00,,CLR,0.31,VWS V14.01,2013-04-14 22:43:00,
2013-04-14 18:48:00,78.9,73.7,29.89,SE,132,12.0,22.0,84,0.00,,CLR,0.31,VWS V14.01,2013-04-14 22:48:00,
2013-04-14 18:53:00,78.8,73.6,29.88,SE,139,6.0,22.0,84,0.00,,CLR,0.31,VWS V14.01,2013-04-14 22:53:00,
2013-04-14 18:58:00,78.6,73.4,29.88,SE,145,3.0,22.0,84,0.00,,CLR,0.31,VWS V14.01,2013-04-14 22:58:00,
2013-04-14 19:03:00,78.5,73.3,29.88,ESE,123,9.0,11.0,84,0.00,,CLR,0.31,VWS V14.01,2013-04-14 23:03:00,
2013-04-14 19:08:00,78.4,73.2,29.88,SE,141,9.0,19.0,84,0.00,,CLR,0.31,VWS V14.01,2013-04-14 23:08:00,
2013-04-14 19:13:00,78.3,73.1,29.89,SE,134,10.0,19.0,84,0.00,,CLR,0.31,VWS V14.01,2013-04-14 23:13:00,
2013-04-14 19:18:00,78.2,73.0,29.88,SE,131,11.0,19.0,84,0.00,,CLR,0.31,VWS V14.01,2013-04-14 23:18:00,
2013-04-14 19:23:00,78.1,72.9,29.88,SE,145,10.0,19.0,84,0.00,,CLR,0.31,VWS V14.01,2013-04-14 23:23:00,
2013-04-14 19:28:00,78.1,73.2,29.89,SE,131,7.0,19.0,85,0.00,,CLR,0.31,VWS V14.01,2013-04-14 23:28:00,
2013-04-14 19:33:00,78.1,73.2,29.89,South,172,5.0,19.0,85,0.00,,CLR,0.31,VWS V14.01,2013-04-14 23:33:00,
2013-04-14 19:38:00,78.0,73.1,29.90,SE,143,7.0,19.0,85,0.00,,CLR,0.31,VWS V14.01,2013-04-14 23:38:00,
2013-04-14 19:43:00,78.0,73.1,29.90,SE,131,7.0,19.0,85,0.00,,CLR,0.31,VWS V14.01,2013-04-14 23:43:00,
2013-04-14 19:48:00,78.0,73.5,29.90,SSE,153,9.0,19.0,86,0.00,,CLR,0.31,VWS V14.01,2013-04-14 23:48:00,
2013-04-14 19:53:00,77.9,73.4,29.91,SE,135,7.0,19.0,86,0.00,,CLR,0.31,VWS V14.01,2013-04-14 23:53:00,
2013-04-14 19:58:00,77.9,73.4,29.90,SE,142,4.0,19.0,86,0.00,,CLR,0.31,VWS V14.01,2013-04-14 23:58:00,
2013-04-14 20:03:00,77.9,73.4,29.90,SE,131,8.0,14.0,86,0.00,,SCT100,0.31,VWS V14.01,2013-04-15 00:03:00,
2013-04-14 20:08:00,77.9,73.4,29.90,SE,134,12.0,14.0,86,0.00,,SCT100,0.31,VWS V14.01,2013-04-15 00:08:00,
2013-04-14 20:13:00,77.8,73.3,29.90,SE,145,8.0,14.0,86,0.00,,SCT100,0.31,VWS V14.01,2013-04-15 00:13:00,
2013-04-14 20:18:00,77.8,73.3,29.91,SSE,150,8.0,14.0,86,0.00,,SCT100,0.31,VWS V14.01,2013-04-15 00:18:00,
2013-04-14 20:23:00,77.9,73.7,29.90,SE,144,8.0,14.0,87,0.00,,SCT100,0.31,VWS V14.01,2013-04-15 00:23:00,
2013-04-14 20:28:00,77.8,73.6,29.91,SE,137,5.0,18.0,87,0.00,,SCT100,0.31,VWS V14.01,2013-04-15 00:28:00,
2013-04-14 20:33:00,77.8,73.6,29.91,SE,146,6.0,18.0,87,0.00,,SCT100,0.31,VWS V14.01,2013-04-15 00:33:00,
2013-04-14 20:38:00,77.7,73.5,29.91,SSE,147,5.0,18.0,87,0.00,,SCT100,0.31,VWS V14.01,2013-04-15 00:38:00,
2013-04-14 20:43:00,77.7,73.5,29.91,SSE,148,8.0,18.0,87,0.00,,SCT100,0.31,VWS V14.01,2013-04-15 00:43:00,
2013-04-14 20:48:00,77.6,73.4,29.91,SE,134,5.0,18.0,87,0.00,,SCT100,0.31,VWS V14.01,2013-04-15 00:48:00,
2013-04-14 20:53:00,77.6,73.8,29.92,SSE,148,5.0,18.0,88,0.00,,SCT100,0.31,VWS V14.01,2013-04-15 00:53:00,
2013-04-14 20:58:00,77.5,73.7,29.91,SSE,159,3.0,18.0,88,0.00,,SCT100,0.31,VWS V14.01,2013-04-15 00:58:00,
2013-04-14 21:03:00,77.5,73.7,29.90,SE,135,7.0,12.0,88,0.00,,SCT100,0.31,VWS V14.01,2013-04-15 01:03:00,
2013-04-14 21:08:00,77.4,73.6,29.90,SE,140,11.0,15.0,88,0.00,,SCT100,0.31,VWS V14.01,2013-04-15 01:08:00,
2013-04-14 21:14:00,77.4,74.2,29.90,SE,137,5.0,16.0,90,0.00,,SCT100,0.31,VWS V14.01,2013-04-15 01:14:00,
2013-04-14 21:19:00,77.2,74.0,29.90,SE,125,6.0,16.0,90,0.00,,SCT100,0.31,VWS V14.01,2013-04-15 01:19:00,
2013-04-14 21:24:00,77.2,73.4,29.91,SE,145,7.0,20.0,88,0.00,,SCT100,0.31,VWS V14.01,2013-04-15 01:24:00,
2013-04-14 21:29:00,77.2,73.4,29.92,South,175,4.0,20.0,88,0.00,,SCT100,0.31,VWS V14.01,2013-04-15 01:29:00,
2013-04-14 21:34:00,77.1,73.6,29.93,SSE,148,8.0,20.0,89,0.00,,SCT100,0.31,VWS V14.01,2013-04-15 01:34:00,
2013-04-14 21:39:00,77.1,73.6,29.93,South,172,2.0,20.0,89,0.00,,SCT100,0.31,VWS V14.01,2013-04-15 01:39:00,
2013-04-14 21:44:00,77.2,73.7,29.93,SSE,156,5.0,20.0,89,0.00,,SCT100,0.31,VWS V14.01,2013-04-15 01:44:00,
2013-04-14 21:49:00,77.2,73.7,29.94,SE,135,4.0,20.0,89,0.00,,SCT100,0.31,VWS V14.01,2013-04-15 01:49:00,
2013-04-14 21:54:00,77.2,73.7,29.94,South,169,3.0,20.0,89,0.00,,SCT100,0.31,VWS V14.01,2013-04-15 01:54:00,
2013-04-14 21:59:00,77.2,73.7,29.95,SSE,153,4.0,20.0,89,0.00,,SCT100,0.31,VWS V14.01,2013-04-15 01:59:00,
2013-04-14 22:04:00,77.3,73.8,29.95,South,171,9.0,13.0,89,0.00,,SCT110,0.31,VWS V14.01,2013-04-15 02:04:00,
2013-04-14 22:09:00,77.3,74.5,29.94,SE,142,13.0,14.0,91,0.00,,SCT110,0.31,VWS V14.01,2013-04-15 02:09:00,
2013-04-14 22:14:00,77.3,74.5,29.95,SSE,149,5.0,17.0,91,0.00,,SCT110,0.31,VWS V14.01,2013-04-15 02:14:00,
2013-04-14 22:19:00,77.3,74.1,29.94,SSE,154,9.0,17.0,90,0.00,,SCT110,0.31,VWS V14.01,2013-04-15 02:19:00,
2013-04-14 22:24:00,77.2,74.0,29.93,SSE,162,3.0,17.0,90,0.00,,SCT110,0.31,VWS V14.01,2013-04-15 02:24:00,
2013-04-14 22:29:00,77.3,74.1,29.94,SSE,157,4.0,17.0,90,0.00,,SCT110,0.31,VWS V14.01,2013-04-15 02:29:00,
2013-04-14 22:34:00,77.3,74.1,29.95,SSE,152,2.0,17.0,90,0.00,,SCT110,0.31,VWS V14.01,2013-04-15 02:34:00,
2013-04-14 22:39:00,77.3,73.8,29.95,South,169,3.0,17.0,89,0.00,,SCT110,0.31,VWS V14.01,2013-04-15 02:39:00,
2013-04-14 22:44:00,77.3,74.1,29.95,SSE,151,8.0,17.0,90,0.00,,SCT110,0.31,VWS V14.01,2013-04-15 02:44:00,
2013-04-14 22:49:00,77.3,74.1,29.95,SSE,167,7.0,17.0,90,0.00,,SCT110,0.31,VWS V14.01,2013-04-15 02:49:00,
2013-04-14 22:54:00,77.3,74.5,29.95,SSE,167,10.0,17.0,91,0.01,,SCT110,0.32,VWS V14.01,2013-04-15 02:54:00,
2013-04-14 22:59:00,77.3,74.1,29.95,SSE,164,13.0,17.0,90,0.01,,SCT110,0.32,VWS V14.01,2013-04-15 02:59:00,
2013-04-14 23:04:00,77.1,73.9,29.95,ESE,123,2.0,7.0,90,0.02,,FEW090,0.33,VWS V14.01,2013-04-15 03:04:00,
2013-04-14 23:09:00,77.1,73.9,29.96,SSE,167,4.0,8.0,90,0.03,,FEW090,0.34,VWS V14.01,2013-04-15 03:09:00,
2013-04-14 23:14:00,77.0,73.8,29.97,SW,226,5.0,8.0,90,0.06,,FEW090,0.37,VWS V14.01,2013-04-15 03:14:00,
2013-04-14 23:19:00,76.8,74.0,29.97,West,265,0.0,8.0,91,0.07,,FEW090,0.38,VWS V14.01,2013-04-15 03:19:00,
2013-04-14 23:24:00,76.3,73.5,29.95,NE,48,7.0,8.0,91,0.07,,FEW090,0.38,VWS V14.01,2013-04-15 03:24:00,
2013-04-14 23:29:00,75.8,73.3,29.96,ENE,60,0.0,8.0,92,0.07,,FEW090,0.38,VWS V14.01,2013-04-15 03:29:00,
2013-04-14 23:34:00,75.8,73.6,29.97,WNW,300,11.0,17.0,93,0.20,,SCT085,0.51,VWS V14.01,2013-04-15 03:34:00,
2013-04-14 23:39:00,75.3,73.1,29.98,NW,313,10.0,22.0,93,0.33,,SCT085,0.64,VWS V14.01,2013-04-15 03:39:00,
2013-04-14 23:44:00,75.0,72.8,29.99,NW,309,6.0,22.0,93,0.49,,SCT085,0.80,VWS V14.01,2013-04-15 03:44:00,
2013-04-14 23:50:00,74.3,71.8,29.96,NW,320,0.0,22.0,92,0.83,,BKN110,1.14,VWS V14.01,2013-04-15 03:50:00,
2013-04-14 23:55:00,73.9,71.8,29.98,West,264,9.0,22.0,93,0.91,,BKN110,1.22,VWS V14.01,2013-04-15 03:55:00,